Weather History for Mineral Point, WI

Change the Weather History Date:

Wednesday, January 16, 2013

  Actual Average (KLNR) Record (KLNR)
Temperature  
Mean Temperature 26 °F -  
Max Temperature 35 °F 24 °F 46 °F (2006)
Min Temperature 17 °F 9 °F -34 °F (2009)
Degree Days  
Heating Degree Days 39    
Moisture  
Dew Point 21 °F    
Average Humidity 74    
Maximum Humidity 93    
Minimum Humidity 59    
Precipitation  
Precipitation 0.00 in - - ()
Sea Level Pressure  
Sea Level Pressure 29.88 in    
Wind  
Wind Speed 11 mph (WSW)    
Max Wind Speed 18 mph    
Max Gust Speed 24 mph    
Visibility 10 miles    
Events Rain , Snow    
Averages and records for this station are not official NWS values.
T = Trace of Precipitation, MM = Missing Value Source: NWS Daily Summary

Daily Weather History Graph

Daily Weather History Graph

Search for Another Location

Airport:

Trip Planner

Search our weather history database for the weather conditions in past years. The results will help you decide how hot, cold, wet, or windy it might be!

Date:

Astronomy

Jan. 16, 2013 Rise Set
Actual Time 7:28 AM CST 4:53 PM CST
Civil Twilight 6:57 AM CST 5:24 PM CST
Nautical Twilight 6:22 AM CST 5:59 PM CST
Astronomical Twilight 5:48 AM CST 6:33 PM CST
Moon 9:55 AM CST (1/16) 10:55 PM CST (1/16)
Length of Visible Light 10h 27m
Length of Day
9h 25m
Waxing Crescent, 28% of the Moon is Illuminated
Jan 16
Waxing Crescent
Jan 18
First Quarter
Jan 26
Full
Feb 3
Last Quarter
Feb 10
New

Hourly Weather History & Observations

Time (CST) Temp. Windchill Dew Point Humidity Pressure Visibility Wind Dir Wind Speed Gust Speed Precip Events Conditions
12:15 AM 19.4 °F 8.6 °F 12.2 °F 74% 30.02 in 10.0 mi SSW 9.2 mph - N/A   Clear
12:35 AM 19.4 °F 9.5 °F 10.4 °F 68% 30.01 in 10.0 mi SSW 8.1 mph - N/A   Clear
12:55 AM 19.4 °F 9.5 °F 10.4 °F 68% 30.00 in 10.0 mi SSW 8.1 mph - N/A   Clear
1:15 AM 19.4 °F 10.4 °F 10.4 °F 68% 29.99 in 10.0 mi South 6.9 mph - N/A   Clear
1:35 AM 19.4 °F 8.6 °F 10.4 °F 68% 29.98 in 10.0 mi South 9.2 mph - N/A   Clear
1:55 AM 19.4 °F 8.6 °F 10.4 °F 68% 29.98 in 10.0 mi South 9.2 mph - N/A   Clear
2:15 AM 19.4 °F 8.6 °F 10.4 °F 68% 29.97 in 10.0 mi South 9.2 mph - N/A   Clear
2:35 AM 19.4 °F 7.9 °F 10.4 °F 68% 29.97 in 10.0 mi South 10.4 mph - N/A   Clear
2:55 AM 19.4 °F 8.6 °F 10.4 °F 68% 29.95 in 10.0 mi South 9.2 mph - N/A   Clear
3:15 AM 17.6 °F 7.3 °F 10.4 °F 73% 29.95 in 10.0 mi SSW 8.1 mph - N/A   Clear
4:15 AM 19.4 °F 7.2 °F 10.4 °F 68% 29.90 in 10.0 mi South 11.5 mph - N/A   Clear
4:35 AM 19.4 °F 8.6 °F 10.4 °F 68% 29.89 in 10.0 mi SSW 9.2 mph - N/A   Clear
4:55 AM 19.4 °F 7.2 °F 10.4 °F 68% 29.88 in 10.0 mi SSW 11.5 mph - N/A   Clear
5:35 AM 19.4 °F 7.2 °F 10.4 °F 68% 29.85 in 10.0 mi South 11.5 mph - N/A   Clear
5:55 AM 19.4 °F 7.2 °F 10.4 °F 68% 29.85 in 10.0 mi SSW 11.5 mph - N/A   Clear
6:15 AM 19.4 °F 7.2 °F 10.4 °F 68% 29.84 in 10.0 mi SSW 11.5 mph 17.3 mph N/A   Clear
6:35 AM 19.4 °F 7.9 °F 10.4 °F 68% 29.84 in 10.0 mi SSW 10.4 mph - N/A   Clear
6:55 AM 19.4 °F 6.6 °F 12.2 °F 74% 29.83 in 10.0 mi SSW 12.7 mph - N/A   Clear
7:15 AM 21.2 °F 8.9 °F 12.2 °F 68% 29.83 in 10.0 mi South 12.7 mph - N/A   Mostly Cloudy
7:35 AM 21.2 °F 7.3 °F 12.2 °F 68% 29.83 in 10.0 mi SSW 16.1 mph - N/A   Overcast
7:55 AM 23.0 °F 10.6 °F 14.0 °F 68% 29.82 in 10.0 mi SSW 13.8 mph - N/A   Overcast
8:15 AM 23.0 °F 10.6 °F 14.0 °F 68% 29.82 in 10.0 mi SSW 13.8 mph - N/A   Overcast
8:35 AM 24.8 °F 12.4 °F 15.8 °F 69% 29.80 in 10.0 mi SSW 15.0 mph - N/A   Overcast
8:55 AM 26.6 °F 14.3 °F 17.6 °F 69% 29.80 in 10.0 mi SSW 16.1 mph 19.6 mph N/A   Overcast
9:15 AM 28.4 °F 16.6 °F 15.8 °F 59% 29.79 in 10.0 mi SSW 16.1 mph 23.0 mph N/A   Overcast
9:35 AM 28.4 °F 15.8 °F 15.8 °F 59% 29.80 in 10.0 mi SW 18.4 mph 23.0 mph N/A   Overcast
9:55 AM 28.4 °F 15.8 °F 15.8 °F 59% 29.78 in 10.0 mi SW 18.4 mph 23.0 mph N/A   Overcast
10:15 AM 30.2 °F 19.3 °F 17.6 °F 60% 29.80 in 10.0 mi WSW 15.0 mph 21.9 mph N/A   Overcast
10:35 AM 30.2 °F 19.8 °F 17.6 °F 60% 29.79 in 10.0 mi WSW 13.8 mph 23.0 mph N/A   Overcast
10:55 AM 30.2 °F 18.5 °F 19.4 °F 64% 29.77 in 10.0 mi SW 17.3 mph 24.2 mph N/A   Overcast
11:15 AM 30.2 °F 19.8 °F 19.4 °F 64% 29.78 in 10.0 mi WSW 13.8 mph - N/A   Overcast
11:35 AM 32.0 °F 21.6 °F 21.2 °F 64% 29.78 in 10.0 mi WSW 15.0 mph 20.7 mph N/A   Overcast
11:55 AM 32.0 °F 20.8 °F 23.0 °F 69% 29.77 in 4.0 mi WSW 17.3 mph 20.7 mph N/A Snow Light Snow
12:15 PM 32.0 °F 20.5 °F 23.0 °F 69% 29.77 in 10.0 mi WSW 18.4 mph 23.0 mph N/A Snow Light Snow
12:35 PM 32.0 °F 21.6 °F 26.6 °F 80% 29.76 in 5.0 mi WSW 15.0 mph 21.9 mph N/A Snow Light Snow
12:55 PM 32.0 °F 23.0 °F 26.6 °F 80% 29.77 in 10.0 mi WSW 11.5 mph - N/A   Overcast
1:15 PM 32.0 °F 21.2 °F 26.6 °F 80% 29.77 in 10.0 mi WSW 16.1 mph - N/A   Overcast
1:35 PM 32.0 °F 24.2 °F 26.6 °F 80% 29.77 in 10.0 mi WSW 9.2 mph - N/A   Overcast
1:55 PM 32.0 °F 21.6 °F 26.6 °F 80% 29.77 in 10.0 mi WSW 15.0 mph 18.4 mph N/A   Overcast
2:15 PM 32.0 °F 22.5 °F 26.6 °F 80% 29.78 in 10.0 mi WSW 12.7 mph 17.3 mph N/A   Overcast
2:35 PM 33.8 °F 24.8 °F 28.4 °F 81% 29.79 in 10.0 mi West 12.7 mph - N/A   Overcast
2:55 PM 33.8 °F 23.9 °F 28.4 °F 81% 29.79 in 10.0 mi West 15.0 mph 20.7 mph N/A   Overcast
3:15 PM 35.6 °F 26.6 °F 28.4 °F 75% 29.80 in 10.0 mi West 13.8 mph - N/A   Mostly Cloudy
3:55 PM 35.6 °F 28.0 °F 28.4 °F 75% 29.82 in 10.0 mi West 10.4 mph - N/A   Clear
4:15 PM 35.6 °F 29.2 °F 30.2 °F 81% 29.84 in 10.0 mi West 8.1 mph - N/A   Mostly Cloudy
4:35 PM 35.6 °F 29.9 °F 30.2 °F 81% 29.85 in 10.0 mi West 6.9 mph - N/A   Overcast
4:55 PM 35.6 °F 31.7 °F 30.2 °F 81% 29.86 in 10.0 mi WSW 4.6 mph - N/A   Overcast
5:15 PM 35.6 °F 31.7 °F 30.2 °F 81% 29.86 in 10.0 mi SW 4.6 mph - N/A   Overcast
5:35 PM 35.6 °F 29.9 °F 30.2 °F 81% 29.88 in 10.0 mi WSW 6.9 mph - N/A   Overcast
5:55 PM 35.6 °F 28.6 °F 30.2 °F 81% 29.90 in 5.0 mi West 9.2 mph - N/A Snow Light Snow
6:15 PM 35.6 °F 29.2 °F 32.0 °F 87% 29.90 in 10.0 mi WSW 8.1 mph - N/A Snow Light Snow
6:35 PM 35.6 °F 28.6 °F 32.0 °F 87% 29.92 in 10.0 mi West 9.2 mph - N/A   Overcast
6:55 PM 35.6 °F 27.5 °F 32.0 °F 87% 29.92 in 10.0 mi West 11.5 mph - N/A Rain Light Rain
7:15 PM 35.6 °F 28.0 °F 33.8 °F 93% 29.93 in 10.0 mi West 10.4 mph - N/A   Overcast
7:55 PM 35.6 °F 28.6 °F 33.8 °F 93% 29.95 in 10.0 mi West 9.2 mph - N/A   Overcast
8:15 PM 35.6 °F 28.6 °F 33.8 °F 93% 29.96 in 10.0 mi West 9.2 mph - N/A   Overcast
8:35 PM 35.6 °F 28.6 °F 32.0 °F 87% 29.97 in 10.0 mi West 9.2 mph - N/A   Overcast
8:55 PM 35.6 °F 29.2 °F 32.0 °F 87% 29.98 in 10.0 mi WNW 8.1 mph - N/A   Overcast
9:15 PM 33.8 °F 28.6 °F 32.0 °F 93% 29.99 in 10.0 mi NW 5.8 mph - N/A   Scattered Clouds
9:55 PM 33.8 °F 24.8 °F 30.2 °F 87% 30.01 in 10.0 mi NW 12.7 mph 16.1 mph N/A   Overcast
10:15 PM 33.8 °F 24.8 °F 28.4 °F 81% 30.00 in 10.0 mi NW 12.7 mph 18.4 mph N/A   Overcast
10:35 PM 33.8 °F 23.2 °F 28.4 °F 81% 30.02 in 10.0 mi NNW 17.3 mph 20.7 mph N/A   Overcast
10:55 PM 32.0 °F 21.6 °F 26.6 °F 80% 30.03 in 10.0 mi North 15.0 mph 19.6 mph N/A   Overcast
11:15 PM 32.0 °F 23.0 °F 23.0 °F 69% 30.04 in 10.0 mi NNW 11.5 mph - N/A   Scattered Clouds
11:35 PM 30.2 °F 21.3 °F 23.0 °F 75% 30.05 in 10.0 mi NNW 10.4 mph - N/A   Clear
11:55 PM 30.2 °F 23.4 °F 21.2 °F 69% 30.06 in 10.0 mi NNW 6.9 mph - N/A   Clear